Location: ?????
(41.4982°N, 22.7731°E)
Time: 03:31:33
(UTC+00:00)

Daily predictions for brighter satellites

Satellite Brightness Start Highest point End
(mag) Time Altitude Azimuth Time Altitude Azimuth Time Altitude Azimuth
Cosmos 1943 Rocket 3.5 02:25:02 34° NE 02:25:02 34° NE 02:28:28 10° NE
CENTAUR R/B 3.1 02:28:55 50° NE 02:28:55 50° NE 02:34:00 10° NE
Cosmos 2082 Rocket 4.3 02:33:43 16° SSE 02:33:43 16° SSE 02:34:46 10° SSE
NOSS 3-2 (A) 4.3 02:40:24 38° NNE 02:40:24 38° NNE 02:44:19 10° NNE
NOSS 3-2 (C) 3.5 02:46:05 65° E 02:46:05 65° E 02:51:43 10° NE
Cosmos 2344 3.5 02:53:31 60° NNW 02:53:31 60° NNW 03:00:41 10° NNE
Envisat 4.5 02:52:36 10° NNE 02:57:16 35° E 03:01:53 10° SSE
Meteor 2-3 Rocket 3.9 02:52:37 10° S 02:58:12 70° E 03:03:53 10° NNE
Cosmos 968 Rocket 3.7 03:02:25 49° SSE 03:03:39 66° ESE 03:08:45 10° NNE
USA 238 DEB 3.4 03:12:40 63° W 03:13:31 70° NW 03:20:20 10° NNE
USA 238 3.4 03:12:43 62° W 03:13:37 71° NW 03:20:26 10° NNE
Genesis I 4.1 03:14:31 48° ENE 03:14:31 48° ENE 03:18:16 10° SE
Cosmos 921 Rocket 4.1 03:13:45 32° NNE 03:15:14 43° ENE 03:19:29 10° SE
Meteor 1-26 Rocket 4.4 03:11:22 17° N 03:16:02 75° E 03:21:47 10° SSE
BREEZE-M DEB (TANK) 3.0 03:15:56 68° NNW 03:16:30 80° NNE 03:28:56 10° ESE
Gbstr 26 Del rocket 3.8 03:18:32 40° SSE 03:18:32 40° SSE 03:21:27 10° SE
Cosmos 1570 Rocket 3.9 03:21:57 65° SW 03:21:57 65° SW 03:26:52 10° S
USA 215 3.8 03:16:14 10° ESE 03:22:30 52° NNE 03:25:42 29° NNW
Cosmos 1812 4.0 03:21:51 24° NNE 03:23:40 39° ENE 03:27:17 10° SSE
Cosmos 1816 Rocket 4.4 03:17:38 10° SSW 03:23:42 57° W 03:29:53 10° N
Cosmos 2034 Rocket 4.0 03:24:10 53° W 03:24:16 53° W 03:30:21 10° SSW
Cosmos 1151 Rocket 4.1 03:24:41 11° N 03:28:45 44° ENE 03:32:55 10° SSE
Cosmos 2369 Rocket 2.1 03:31:38 10° SSW 03:37:13 89° ESE 03:42:51 10° NNE
Cosmos 1782 2.7 03:40:16 63° SW 03:40:16 63° SW 03:43:49 10° S
Meteor 1-31 Rocket 3.0 03:36:36 10° NNE 03:40:29 69° ESE 03:44:22 10° S
SJ-12 3.8 03:40:54 10° N 03:45:03 74° WNW 03:49:09 10° SSW
COSMO-SKYMED 1 2.5 03:41:10 10° SSE 03:45:30 87° ENE 03:48:36 19° NNW
Cosmos 1862 3.7 03:41:41 10° S 03:45:33 63° E 03:49:28 10° NNE
Cosmos 1634 Rocket 3.9 03:40:25 10° N 03:46:42 77° W 03:52:54 10° S
MOS 1-B Rocket 3.9 03:42:07 10° S 03:48:35 65° WSW 03:54:14 11° NNW
Tsikada Rocket 4.2 03:45:29 10° SSW 03:51:21 44° WNW 03:57:19 10° N
Cosmos 1867 3.9 03:50:15 38° W 03:51:26 43° WSW 03:56:32 10° S
Cosmos 2208 Rocket 4.4 03:52:17 35° WNW 03:53:46 43° WSW 03:58:48 10° S
H-2A R/B 2.7 03:50:33 10° N 03:54:11 54° WNW 03:57:50 10° SSW
Helios 1B 4.4 03:50:16 10° S 03:54:34 69° WSW 03:57:21 22° NNW
Cosmos 1656 Rocket 3.5 03:55:56 10° SSW 04:01:20 81° WNW 04:06:48 10° NNE
CZ-4B R/B 4.3 03:59:10 10° NNE 04:02:29 35° E 04:05:48 10° SSE
TSX-5 4.4 03:58:10 18° NNW 04:02:31 75° WSW 04:07:06 10° SSE
Cosmos 1503 Rocket 4.2 03:57:40 10° SSW 04:02:54 77° ESE 04:08:14 10° NNE
CZ-4B R/B 4.4 04:04:36 10° E 04:06:05 12° ENE 04:07:34 10° NE
CZ-2C R/B 2.7 04:01:11 10° S 04:06:37 61° W 04:11:59 10° NNW
Cosmos 1943 Rocket 3.1 04:06:39 25° WNW 04:07:01 26° NW 04:11:41 10° N
CZ-4C R/B 2.6 04:07:04 10° SSE 04:10:13 88° WSW 04:12:32 17° NNW
Cosmos 1486 Rocket 4.1 04:05:25 10° SW 04:10:35 53° WNW 04:15:47 10° N
Cosmos 2180 Rocket 4.5 04:10:40 10° N 04:16:52 89° ENE 04:23:00 10° S
CENTAUR R/B 3.5 04:16:08 21° WNW 04:18:41 27° NW 04:24:39 10° NNE
SL-8 R/B 4.1 04:16:23 22° NW 04:19:20 53° NNE 04:24:01 10° E
Cosmos 1515 Rocket 4.0 04:17:09 10° N 04:21:29 63° E 04:25:46 10° SSE
SJ 16-02 2.5 04:23:33 10° S 04:27:45 47° ESE 04:31:58 10° NNE
NOAA 11 4.1 04:23:04 10° N 04:28:33 75° WNW 04:34:00 10° SSW
NOAA 12 4.2 04:29:11 10° NNE 04:34:28 80° ESE 04:39:42 10° S
Meteor 2-8 Rocket 4.4 04:29:21 10° NNW 04:35:26 64° W 04:41:27 10° S
Envisat 3.8 04:31:52 10° N 04:36:07 28° WNW 04:40:22 10° WSW
NOSS 3-2 (C) 4.4 04:33:35 15° W 04:37:06 25° NW 04:42:25 10° NNE
Cosmos 1340 Rocket 3.5 04:33:39 10° S 04:37:30 57° E 04:41:25 10° NNE
Meteor 2-6 Rocket 4.4 04:33:01 10° NNW 04:38:10 46° W 04:43:18 10° SSW
DELTA 2 R/B (1) 3.9 04:33:18 10° WSW 04:38:48 67° S 04:44:18 10° E
Cosmos 1500 Rocket 4.0 04:34:57 10° S 04:39:21 68° E 04:43:49 10° NNE
Cosmos 2098 Rocket 4.0 04:37:56 10° SW 04:41:02 23° WNW 04:44:44 10° NNW
ATLAS 3B R/B 3.3 04:38:49 10° SSW 04:45:09 60° ESE 04:51:47 10° NE
SL-27 R/B 2.8 04:42:03 10° NNW 04:45:38 66° ENE 04:49:08 10° SSE
Cosmos 1939 Rocket 2.8 04:42:06 10° NNE 04:46:03 90° S 04:49:55 10° SSW
Sich 1 4.5 04:49:03 10° SSE 04:53:04 41° E 04:57:05 10° NNE
H-2A R/B 2.0 04:49:33 10° S 04:53:46 75° WSW 04:58:07 10° NNW
Meteor 1-10 Rocket 4.4 04:48:52 10° NNW 04:54:10 48° W 04:59:28 10° SSW
Okean O Rocket 4.5 04:51:26 10° NE 04:54:52 22° E 04:58:16 10° SE
ATLAS 5 CENTAUR R/B 1.4 04:51:23 10° SSW 04:55:08 79° ESE 04:59:19 10° NE
Cosmos 1174 3.2 04:53:20 10° SSW 04:56:18 78° ESE 04:59:20 10° NNE
DNEPR-1 R/B 4.4 04:53:39 10° NW 04:58:24 48° WSW 05:04:07 10° S
ADEOS 4.2 04:55:01 10° N 04:59:41 34° WNW 05:04:20 10° SW
USA 215 3.7 04:59:13 10° SSE 05:05:30 50° SW 05:11:50 10° WNW
CZ-2C R/B 3.4 05:03:18 10° N 05:07:49 40° WNW 05:12:31 10° SW
BREEZE-M DEB (TANK) 3.2 05:09:48 10° WSW 05:19:39 57° NNW 05:22:44 10° NE
